#timestamp,LO_Frequency,Hit,StdDev 
1586192415.4,286047000.6,N
1586192435.3,286047002.5,N
1586192455.1,286047005.6,N
1586192475.9,286047004.2,N
1586192525.7,286047000.5,E
1586192535.6,286046999.1,N
1586192555.5,286046996.9,P
1586192575.3,286046997.2,N
1586192595.2,286046996.7,Y
1586192615.9,286047001.2,P
1586192635.7,286046999.9,N
1586192655.6,286046998.2,N
1586192675.4,286046996.9,N
1586192695.2,286046997.3,N
1586192715.1,286046997.7,N
1586192716.0,286046997.7,N
1586192735.8,286046999.6,N
1586192755.7,286046999.6,N
1586192775.5,286046995.3,Y
1586192795.3,286046997.1,P
1586192815.2,286046996.0,P
1586192835.0,286046997.5,N
1586192835.9,286046997.5,N
1586192855.8,286046996.7,Y
1586192875.6,286046998.5,P
1586192895.4,286047000.9,N
1586192915.3,286046999.9,N
1586192935.1,286047000.2,N
1586192955.9,286047001.2,N
1586192975.7,286047001.2,N
1586192995.5,286047000.7,N
1586193015.4,286047000.2,N
1586193035.2,286047001.5,N
1586193055.0,286047001.4,N
1586193056.0,286047001.4,N
1586193075.8,286047005.6,Y
1586193095.6,286047003.3,P
1586193115.5,286047003.1,N
1586193135.3,286047004.3,P
1586193155.1,286047005.7,Y
1586193175.9,286047005.0,P
1586193195.7,286047006.9,P
1586193215.6,286047006.3,P
1586193235.4,286047004.6,N
1586193255.2,286047007.5,Y
1586193275.1,286047002.4,P
1586193276.0,286047002.4,N
1586193295.8,286046999.9,N
1586193315.6,286047000.4,N
1586193335.5,286046999.9,N
1586193355.3,286047001.1,N
1586193375.2,286047000.9,N
1586193395.9,286047000.6,N
1586193415.7,286047000.5,N
1586193435.6,286047000.6,N
1586193455.4,286046998.2,N
1586193475.2,286046997.1,N
1586193495.1,286046999.5,N
1586193496.0,286046999.5,N
1586193515.8,286046997.7,N
1586193535.7,286046993.3,Y
1586193555.5,286046990.4,P
1586193575.3,286046989.4,N
1586193595.2,286046989.7,N
1586193615.0,286046989.8,N
1586193615.9,286046989.8,N
1586193635.8,286046988.8,N
1586193655.6,286046991.9,N
1586193675.4,286046996.3,N
1586193695.3,286046996.3,N
1586193715.1,286046995.6,N
1586193716.0,286046995.6,N
1586193735.8,286046995.7,N
1586193755.7,286046997.2,N
1586193775.5,286047001.1,N
1586193795.4,286047002.4,N
1586193815.2,286047003.9,N
1586193835.0,286046999.8,N
1586193835.9,286046999.8,N
1586193855.8,286047002.4,N
1586193875.6,286046996.6,N
1586193895.5,286046993.3,N
1586193915.3,286046992.8,N
1586193935.1,286046988.1,N
1586193955.9,286046985.3,Y
1586193975.7,286046990.7,P
1586193995.6,286046991.6,P
1586194015.4,286046988.7,P
1586194035.2,286046991.9,Y
1586194055.1,286046999.6,P
1586194056.0,286046999.6,N
1586194075.8,286046995.4,N
1586194095.7,286046995.2,N
1586194115.5,286046993.9,N
1586194135.3,286046993.5,N
1586194155.2,286046996.4,N
1586194175.0,286046995.6,N
1586194175.9,286046995.6,N
1586194195.7,286046997.6,N
1586194215.6,286046995.1,N
1586194235.4,286046995.3,N
1586194255.3,286046993.6,N
1586194275.1,286046995.5,N
1586194276.0,286046995.5,N
1586194295.8,286046997.3,N
1586194315.7,286047002.8,N
1586194335.5,286047005.6,N
1586194355.4,286047006.9,N
1586194375.2,286047011.0,N
1586194395.0,286047016.0,Y
1586194395.9,286047016.0,P
1586194415.8,286047022.7,N
1586194435.6,286047022.3,N
1586194455.4,286047024.8,N
1586194475.3,286047028.4,N
1586194495.1,286047029.9,N
1586194515.9,286047028.6,N
1586194535.7,286047031.6,Y
1586194555.5,286047010.3,P
1586194575.4,286047009.4,N
1586194595.2,286047012.2,N
1586194615.0,286047015.4,Y
1586194616.0,286047015.4,P
1586194635.8,286047000.5,N
1586194655.6,286046999.1,N
1586194675.5,286046996.9,N
1586194695.3,286046996.5,N
1586194715.1,286047001.2,N
1586194735.9,286046999.8,N
1586194755.7,286047004.0,N
1586194775.6,286047005.9,N
1586194795.4,286047005.4,N
1586194815.2,286047006.3,N
1586194835.1,286047008.0,N
1586194836.0,286047008.0,N
1586194855.8,286047007.8,N
1586194875.6,286047008.6,N
1586194895.5,286047006.1,N
1586194915.3,286047006.2,N
1586194935.1,286047009.2,N
1586194955.9,286047008.3,N
1586194975.7,286047006.3,N
1586194995.6,286047009.2,N
1586195015.4,286047010.4,N
1586195035.2,286047012.2,N
1586195055.1,286047012.1,N
1586195056.0,286047012.1,N
1586195075.8,286047011.8,N
1586195095.7,286047010.0,N
1586195115.5,286047010.1,N
1586195135.3,286047012.3,N
1586195155.2,286047011.0,N
1586195175.9,286047016.7,Y
1586195195.7,286047008.5,P
1586195215.6,286047010.8,P
1586195235.4,286047009.5,P
1586195255.3,286047009.6,Y
1586195275.1,286046999.3,P
1586195276.0,286046999.3,N
1586195295.8,286046996.6,N
1586195315.7,286046999.4,N
1586195335.5,286046998.3,N
1586195355.3,286046998.1,N
1586195375.2,286046999.9,N
1586195395.0,286047000.9,N
1586195395.9,286047000.9,N
1586195415.8,286047000.1,N
1586195435.6,286047000.4,N
1586195455.4,286047001.9,N
1586195475.3,286047001.3,N
1586195495.1,286047003.3,N
1586195515.9,286047003.6,N
1586195535.7,286047004.3,N
1586195555.5,286047003.6,N
1586195575.4,286047005.5,N
1586195595.2,286047003.5,N
1586195615.0,286047003.2,N
1586195615.9,286047003.2,N
1586195635.8,286047007.5,N
1586195655.6,286047004.5,N
1586195675.5,286047004.9,N
1586195695.3,286047004.9,N
1586195715.1,286047003.6,N
1586195735.9,286047000.5,N
1586195755.7,286046998.2,N
1586195775.5,286046998.4,N
1586195795.4,286047000.9,N
1586195815.2,286047002.5,N
1586195835.1,286047003.1,N
1586195836.0,286047003.1,N
1586195855.8,286047006.4,N
1586195875.6,286047009.9,Y
1586195895.5,286047008.3,P
1586195915.3,286047010.8,P
1586195935.1,286047008.2,N
1586195955.9,286047008.3,N
1586195975.7,286047010.4,Y
1586195995.6,286047001.5,P
